Location: Cedar Ridge
(38.0658°N, 120.2769°W)
Time: 21:50:14
(UTC+00:00)

Atlas Centaur 2 - Pass Details

Date: 10 September 2024
Orbit: 457 x 1270 km, 30.4° (Epoch: 12 October)

Event Time Altitude Azimuth Distance (km) Brightness Sun altitude
Exits shadow 12:58:14 - 235° (SW) 2,553 4.1 -8.8°
Reaches altitude 10° 12:58:37 10° 233° (SW) 2,433 4.0 -8.7°
Maximum altitude 13:04:03 38° 167° (SSE) 1,432 3.4 -7.6°
Drops below altitude 10° 13:10:39 10° 102° (ESE) 2,971 6.3 -6.4°
Sets 13:13:53 0° 95° (E) 4,038 7.6 -5.8°
